Regional Weather Roundup
Issued by NWS Upton, NY

Current Version | Previous Version | Graphics & Text | Print | Product List | Glossary Off
Versions: 1 2 3 4 5 6 7 8 9 10 11 12 13 14 15 16 17 18 19 20 21 22 23 24 25 26 27 28 29 30 31 32 33 34 35 36 37 38 39 40 41 42 43 44 45 46 47 48 49 50

000
ASUS41 KOKX 170409
RWROKX

REGIONAL WEATHER ROUNDUP
NATIONAL WEATHER SERVICE NEW YORK NY
1200 AM EDT TUE OCT 17 2017

NOTE: "FAIR" INDICATES FEW OR NO CLOUDS BELOW 12,000 FEET WITH NO
SIGNIFICANT WEATHER AND/OR OBSTRUCTIONS TO VISIBILITY.

NYZ071-072-176-178-NJZ106-104-170500-
NEW YORK CITY METRO AREA

CITY           SKY/WX    TMP DP  RH WIND       PRES   REMARKS
Central Park   CLEAR     48  28  46 VRB5      30.24R
Bronx Bot Gard   N/A     46  30  53 W2        30.22F
LaGuardia APRT CLEAR     50  33  52 NW17G24   30.21R
Kennedy INTL   CLEAR     48  31  51 N15       30.21R
Breezy Point     N/A     48 N/A N/A N16G23      N/A
Newark/Liberty CLEAR     48  29  47 NW16      30.22R
Teterboro      CLEAR     47  29  49 NW8       30.21S
$$

NYZ177-179-078>081-170500-
LONG ISLAND NEW YORK

CITY           SKY/WX    TMP DP  RH WIND       PRES   REMARKS
Jones Beach      N/A     48 N/A N/A N14         N/A
Matinecock PT    N/A     50 N/A N/A N17         N/A
Farmingdale    CLEAR     48  34  58 N9        30.20R
MacArthur/ISP  PTCLDY    49  35  58 N17G24    30.19R
Shirley        CLEAR     50  37  61 N13G18    30.19R
Mt Sinai Harb    N/A    N/A N/A N/A N18         N/A
Westhampton    CLEAR     49  35  58 N13       30.19R
East Hampton   FAIR      48  37  64 N15G23    30.16R
Montauk          N/A     52  40  63 N13G23    30.17R
$$

NYZ052-065-067-170500-
HUDSON VALLEY

CITY           SKY/WX    TMP DP  RH WIND       PRES   REMARKS
White Plains   CLEAR     43  32  65 NW8       30.20R
Larchmont Harb   N/A     46 N/A N/A NW13        N/A
Croton On Huds   N/A     45 N/A N/A N5          N/A
Newburgh       CLEAR     41  34  75 NW10      30.22R
Montgomery     PTCLDY    41  31  67 W7        30.21S
Poughkeepsie   PTCLDY    42  32  67 NW3       30.21R
Albany         PTCLDY    40  32  73 CALM      30.22S
$$

NJZ001-105-106-008-010-013-015-019>022-104-170500-
NEW JERSEY

CITY           SKY/WX    TMP DP  RH WIND       PRES   REMARKS
Newark/Liberty CLEAR     48  29  47 NW16      30.22R
Teterboro      CLEAR     47  29  49 NW8       30.21S
Caldwell       CLEAR     45  30  55 VRB6      30.24R
Somerville     CLEAR     45  34  65 CALM      30.23R
Linden         FAIR      47  29  51 NW9       30.23S
Perth Amboy      N/A     48 N/A N/A NW12        N/A
Sussex         CLEAR     37  34  89 CALM      30.23S
Andover          N/A     41  31  67 N6        30.23S
Trenton        CLEAR     46  33  60 N8        30.24R
Millville      CLEAR     48  40  73 N7        30.23R
Atlantic City  CLEAR     43  38  82 N6        30.22R
Wrightstown    NOT AVBL
Toms River       N/A     42  37  82 NW5       30.23R
Belmar         CLEAR     47  33  58 NW12      30.23R
$$

PAZ047>061-062-071-170500-
EASTERN PENNSYLVANIA

CITY           SKY/WX    TMP DP  RH WIND       PRES   REMARKS
Philadelphia   CLEAR     50  34  54 N10       30.25R
Allentown      CLEAR     43  32  65 N10       30.26R
Scranton       CLEAR     41  32  70 NW3       30.25S
$$

CTZ002-004>006-009-010-012-RIZ004-006-007-MAZ004-011-015-170500-
SOUTHERN NEW ENGLAND
 IN CT

CITY           SKY/WX    TMP DP  RH WIND       PRES   REMARKS
Bradley INTL   PTCLDY    44  35  70 N8        30.18S
Hartford       PTCLDY    45  34  65 N7        30.18S
Danbury        CLEAR     42  34  73 CALM      30.21R
Wtrbury/Oxford CLEAR     40  34  79 N5        30.19R
Norwalk Harbor   N/A     46 N/A N/A NW9         N/A
Bridgeport     CLEAR     47  34  60 N12       30.19R
Meriden        CLEAR     43  35  73 NW6       30.19R
New Haven      CLEAR     47  35  63 N8        30.19R
Chester        FAIR      45  36  70 NW7       30.17R
Groton         PTCLDY    45  37  73 N6        30.16R
Wilimantic     CLEAR     46  37  71 N7        30.18R

 IN RI

CITY           SKY/WX    TMP DP  RH WIND       PRES   REMARKS
Providence     PTCLDY    46  33  60 N13       30.17R
Block Island   CLEAR     48  38  68 N16G23    30.16R
Westerly       CLEAR     46  39  76 N5        30.17R
 IN MA

CITY           SKY/WX    TMP DP  RH WIND       PRES   REMARKS
Boston         PTCLDY    45  33  63 NW14      30.16R
Worcester      CLEAR     39  30  70 NW7       30.15S WCI  34
Westfield      PTCLDY    44  35  70 N7        30.18R
Provincetown   LGT RAIN  48  43  82 N22G31    30.12R
Nantucket      CLOUDY    52  44  74 N24G30    30.09R
$$

ANZ330-335-338-340-345-350-353-355-170500-
COASTAL MARINE OBSERVATIONS


STATION/POSITION TIME  SKY/WX   TEMP    WIND        PRES    VSBY  WAVE
                                AIR SEA DIR/SP/G                  HT/PER
                 (UTC)          (F)     (DEG/KT/KT) (MB)    (MI)  (FT/S)
NY HARB ENTRANCE 0350            53 66  330/ 19/ 23 1021.7          4/ 4
20 S FIRE ISLAND 0350            54 64  360/ 17/ 21 1021.7          4/ 5
GREAT SOUTH BAY  0330            52 64  340/ 14/ 19   N/A
15 E BARNEGAT LI 0330               67                N/A           6/ 6
HUDSON CANYON    0250            57 65  360/ 23/ 29 1019.7          7/ 6
KINGS POINT      0342            50 66   30/ 14/ 17 1023.6
EXECUTION ROCKS  0330            51     350/ 14/ 17   N/A
WESTERN LI SOUND 0249            51     340/ 14/ 19   N/A           1/ 2
CENTRAL LI SOUND 0253            53     330/ 19/ 25   N/A           3
EASTERN LI SOUND NOT AVBL
ROBBINS REEF     0342            49     330/ 12/ 22 1023.6
$$


>>>>>>>>>>>>>>>>>>>>>>>>>>>> KEY <<<<<<<<<<<<<<<<<<<<<<<<<<<
>                                                          <
>     SKY/WX - Sky Condition/Present Weather               <
>     TMP    - Temperature in Fahrenheit                   <
>     DP     - Dew Point in Fahrenheit                     <
>     RH     - Relative Humidity in Percent                <
>     WIND   - Direction (from) and Speed in MPH           <
>     PRES   - Mean Sea Level Pressure (inches of Hg)      <
>     WCI    - Wind Chill Index                            <
>     VSB    - VISIBILITY IN MILES                         <
>     HX     - HEAT INDEX                                  <
>     TC     - TEMPERATURE IN CELSIUS                      <
>     VRB    - VARIABLE WIND DIRECTION                     <
>                                                          <
>>>>>>>>>>>>>>>>>>>>>>>>>>>> KEY <<<<<<<<<<<<<<<<<<<<<<<<<<<



USA.gov is the U.S. government's official web portal to all federal, state and local government web resources and services.